This is the latest recevied weather packets stored in our database for station/object KE5QKR. If no packets are shown the sender has not sent any weather packets the latest 10 day(s).
| Time | Temp. | Humidity | Pressure | Rain* | Wind** | Luminosity | Snow |
|---|---|---|---|---|---|---|---|
| 1777221731 | 22.78° C | 92% | 1011 hPa | 1.27 mm | - | 790 W/m² | - |
| 1777221427 | 22.78° C | 93% | 1010.8 hPa | 0 mm | - | 787 W/m² | - |
| 1777221125 | 22.22° C | 91% | 1010.8 hPa | 0 mm | - | 787 W/m² | - |
| 1777220821 | 21.67° C | 90% | 1010.9 hPa | 0 mm | - | 790 W/m² | - |
| 1777220516 | 21.11° C | 93% | 1010.7 hPa | 1.78 mm | - | 778 W/m² | - |
| 1777220211 | 21.67° C | 96% | 1010.6 hPa | 1.78 mm | - | 761 W/m² | - |
| 1777219908 | 20.56° C | 95% | 1010.6 hPa | 0 mm | - | 756 W/m² | - |
| 1777219605 | 20.56° C | 96% | 1010.5 hPa | 0 mm | - | 761 W/m² | - |
| 1777219302 | 19.44° C | 98% | 1010.6 hPa | 0 mm | - | 770 W/m² | - |
| 1777218997 | 20° C | 99% | 1010.5 hPa | 0 mm | - | 763 W/m² | - |
| 1777218693 | 19.44° C | 99% | 1010.7 hPa | 1.27 mm | - | 575 W/m² | - |
| 1777218390 | 18.89° C | 99% | 1010.3 hPa | 1.27 mm | - | 189 W/m² | - |
| 1777218086 | 18.33° C | 99% | 1010.3 hPa | 0 mm | - | 144 W/m² | - |
| 1777217781 | 18.33° C | 99% | 1010.2 hPa | 0 mm | - | 119 W/m² | - |
| 1777217478 | 18.33° C | 99% | 1010.4 hPa | 0 mm | - | 83 W/m² | - |
| 1777217174 | 18.33° C | 99% | 1010.3 hPa | 0 mm | - | 56 W/m² | - |
| 1777216871 | 18.33° C | 99% | 1010.9 hPa | 0 mm | - | 34 W/m² | - |
| 1777216567 | 17.78° C | 99% | 1010.7 hPa | 1.78 mm | - | 31 W/m² | - |
| 1777216263 | 17.78° C | 99% | 1011.5 hPa | 1.78 mm | - | 23 W/m² | - |
| 1777215961 | 17.78° C | 99% | 1012.1 hPa | 0 mm | - | 17 W/m² | - |
| 1777215657 | 17.78° C | 99% | 1012.2 hPa | 0 mm | - | 13 W/m² | - |
| 1777215352 | 17.78° C | 99% | 1012.6 hPa | 1.27 mm | - | 12 W/m² | - |
| 1777215050 | 17.78° C | 99% | 1012.4 hPa | 1.27 mm | - | 12 W/m² | - |
| 1777214749 | 17.78° C | 99% | 1012.9 hPa | 0 mm | - | 10 W/m² | - |
| 1777214449 | 17.78° C | 99% | 1012.9 hPa | 1.78 mm | - | 6 W/m² | - |
* Rain latest hour (hover to see other rain measurements)
** Current wind speed in m/s (hover to see current wind gust speed)